This is the latest recevied weather packets stored in our database for station/object KB2KMM. If no packets are shown the sender has not sent any weather packets the latest 10 day(s).
| Time | Temp. | Humidity | Pressure | Rain* | Wind** | Luminosity | Snow |
|---|---|---|---|---|---|---|---|
| 1778009105 | 20.56° C | 59% | 1010.1 hPa | 0 mm | - | - | - |
| 1778008809 | 20° C | 60% | 1010.3 hPa | 0 mm | - | - | - |
| 1778008505 | 19.44° C | 61% | 1010.2 hPa | 0 mm | - | - | - |
| 1778008208 | 19.44° C | 63% | 1010.3 hPa | 0 mm | - | - | - |
| 1778007905 | 18.89° C | 61% | 1010.5 hPa | 0 mm | - | - | - |
| 1778007605 | 19.44° C | 61% | 1010.6 hPa | 0 mm | - | - | - |
| 1778007305 | 19.44° C | 60% | 1010.7 hPa | 0 mm | - | - | - |
| 1778007010 | 19.44° C | 61% | 1010.7 hPa | 0 mm | - | - | - |
| 1778006705 | 19.44° C | 60% | 1010.8 hPa | 0 mm | - | - | - |
| 1778006409 | 20° C | 60% | 1010.9 hPa | 0 mm | - | - | - |
| 1778006106 | 19.44° C | 61% | 1011 hPa | 0 mm | - | - | - |
| 1778005810 | 19.44° C | 63% | 1010.8 hPa | 0 mm | - | - | - |
| 1778005505 | 19.44° C | 64% | 1010.9 hPa | 0 mm | - | - | - |
| 1778005209 | 19.44° C | 65% | 1011 hPa | 0 mm | - | - | - |
| 1778004906 | 18.89° C | 65% | 1011 hPa | 0 mm | - | - | - |
| 1778004608 | 18.89° C | 64% | 1011 hPa | 0 mm | - | - | - |
| 1778004306 | 18.89° C | 65% | 1011.1 hPa | 0 mm | - | - | - |
| 1778004005 | 18.89° C | 65% | 1011.2 hPa | 0 mm | - | - | - |
| 1778003705 | 18.89° C | 66% | 1011.2 hPa | 0 mm | - | - | - |
| 1778003409 | 18.89° C | 68% | 1011.1 hPa | 0 mm | - | - | - |
| 1778003105 | 18.89° C | 68% | 1011.3 hPa | 0 mm | - | - | - |
| 1778002809 | 18.89° C | 68% | 1011.2 hPa | 0 mm | - | - | - |
| 1778002505 | 18.33° C | 69% | 1011.1 hPa | 0 mm | - | - | - |
| 1778002209 | 18.33° C | 69% | 1011.3 hPa | 0 mm | - | - | - |
| 1778001906 | 18.33° C | 70% | 1011.2 hPa | 0 mm | - | - | - |
* Rain latest hour (hover to see other rain measurements)
** Current wind speed in m/s (hover to see current wind gust speed)